Location: C�mpuri de-Sus
(45.9500°N, 22.5500°E)
Time: 13:10:30
(UTC+00:00)

Cosmos 1953 - Pass Details

Date: 24 October 2021
Orbit: 537 x 557 km, 82.5° (Epoch: 07 December)

Event Time Altitude Azimuth Distance (km) Brightness Sun altitude
Rises 15:53:33 0° 183° (S) 2,725 6.1 -5.1°
Reaches altitude 10° 15:55:42 10° 181° (S) 1,836 5.2 -5.5°
Maximum altitude 15:59:44 74° 97° (E) 585 2.3 -6.1°
Drops below altitude 10° 16:03:49 10° 12° (NNE) 1,853 4.8 -6.8°
Sets 16:06:00 0° 11° (N) 2,752 5.7 -7.2°
